Flag for U.S.A. Weather past 2 weeks in Davis, California, U.S.A.

Now
79 °F

Scattered clouds.


Feels Like: 80 °F
Forecast: 64 / 80 °F
Wind: 3 mph from Southwest

Location: Sacramento International Airport

Current Time: Sep 18, 2014 at 2:57:11 PM

Latest Report: Sep 18, 2014 at 1:53 PM


Visibility: 10 mi

Pressure: 29.83 "Hg

Humidity: 47%

Dew point: 57 °F

Location of DavisLocation

Historic Weather in Davis — Graph

°F

Davis temperature yesterday

Maximum temperature yesterday: 88 °F (at 1:53 PM)
Minimum temperature yesterday: 62 °F (at 6:53 AM)
Average temperature yesterday: 74 °F

Past Weeks' High & Low Weather Summary

 TemperatureHumidityPressure
High101 °F (Sep 12, 3:53 PM)90% (Sep 4, 6:53 AM)29.97 "Hg (Sep 4, 6:53 AM)
Low53 °F (Sep 9, 6:53 AM)12% (Sep 12, 3:53 PM)29.60 "Hg (Sep 3, 7:53 PM)
Average75 °F48%29.79 "Hg
* Reported Sep 3 12:53 PM — Sep 18 12:53 PM, Davis, Weather by CustomWeather, © 2014

Note: Actual official high and low records may vary slightly from our data, if they occured in-between our weather recording intervals... More about our weather records

Advertising

Davis weather history for previous 24 hours

 ConditionsComfort  
Time TempWeatherWind HumidityBarometerVisibility
12:53 PM
Sep 18
80 °FScattered clouds.12 mph47%29.85 "Hg10 mi
11:53 AM77 °FPartly sunny.10 mph54%29.86 "Hg10 mi
10:53 AM76 °FPartly sunny.10 mph60%29.85 "Hg10 mi
9:53 AM73 °FPartly sunny.10 mph66%29.85 "Hg10 mi
8:53 AM71 °FPartly sunny.7 mph73%29.84 "Hg10 mi
7:53 AM71 °FPartly sunny.7 mph73%29.82 "Hg10 mi
6:53 AM70 °FOvercast.7 mph76%29.80 "Hg10 mi
5:53 AM70 °FOvercast.7 mph76%29.79 "Hg10 mi
4:53 AM70 °FPassing clouds.7 mph76%29.78 "Hg10 mi
3:53 AM70 °FOvercast.8 mph76%29.78 "Hg10 mi
2:53 AM70 °FPassing clouds.7 mph76%29.77 "Hg10 mi
1:53 AM69 °FPassing clouds.8 mph79%29.77 "Hg10 mi
12:53 AM69 °FPassing clouds.5 mph70%29.76 "Hg10 mi
11:53 PM
Sep 17
70 °FPassing clouds.6 mph64%29.76 "Hg10 mi
10:53 PM71 °FPassing clouds.6 mph57%29.75 "Hg10 mi
9:53 PM72 °FClear.9 mph53%29.73 "Hg10 mi
8:53 PM73 °FPassing clouds.12 mph51%29.72 "Hg10 mi
7:53 PM76 °FPassing clouds.10 mph42%29.70 "Hg10 mi
6:53 PM81 °FPassing clouds.9 mph28%29.68 "Hg10 mi
5:53 PM85 °FPassing clouds.15 mph23%29.68 "Hg10 mi
4:53 PM87 °FPassing clouds.15 mph23%29.68 "Hg10 mi
3:53 PM88 °FPassing clouds.15 mph24%29.69 "Hg10 mi
2:53 PM88 °FPassing clouds.9 mph22%29.71 "Hg10 mi
Weather by CustomWeather, © 2014

See weather overviewHow to use our weather pages